This is the latest recevied weather packets stored in our database for station/object K1BES. If no packets are shown the sender has not sent any weather packets the latest 10 day(s).
| Time | Temp. | Humidity | Pressure | Rain* | Wind** | Luminosity | Snow |
|---|---|---|---|---|---|---|---|
| 1787781533 | 31.67° C | 67% | 1017.1 hPa | 0 mm | - | 54 W/m² | - |
| 1787781233 | 31.67° C | 67% | 1017 hPa | 0 mm | - | 52 W/m² | - |
| 1787780931 | 31.67° C | 67% | 1017 hPa | 0 mm | - | 54 W/m² | - |
| 1787780626 | 31.67° C | 67% | 1016.9 hPa | 0 mm | - | 55 W/m² | - |
| 1787780321 | 32.22° C | 66% | 1017.2 hPa | 0 mm | - | 56 W/m² | - |
| 1787780017 | 32.22° C | 68% | 1017.2 hPa | 0 mm | - | 57 W/m² | - |
| 1787779712 | 32.22° C | 67% | 1017.1 hPa | 0 mm | - | 59 W/m² | - |
| 1787779411 | 32.22° C | 68% | 1017 hPa | 0 mm | - | 60 W/m² | - |
| 1787779106 | 32.22° C | 68% | 1017.1 hPa | 0 mm | - | 61 W/m² | - |
| 1787778801 | 32.22° C | 69% | 1017.1 hPa | 0 mm | - | 64 W/m² | - |
| 1787778497 | 32.22° C | 70% | 1016.8 hPa | 0 mm | - | 88 W/m² | - |
| 1787778193 | 32.22° C | 68% | 1017.1 hPa | 0 mm | - | 74 W/m² | - |
| 1787777892 | 32.22° C | 70% | 1017.2 hPa | 0 mm | - | 83 W/m² | - |
| 1787777588 | 32.22° C | 70% | 1017.1 hPa | 0 mm | - | 93 W/m² | - |
| 1787777283 | 32.22° C | 71% | 1017.1 hPa | 0 mm | - | 103 W/m² | - |
| 1787776982 | 32.22° C | 70% | 1017.3 hPa | 0 mm | - | 118 W/m² | - |
| 1787776682 | 31.67° C | 71% | 1017 hPa | 0 mm | - | 136 W/m² | - |
| 1787776381 | 31.67° C | 71% | 1017.2 hPa | 0 mm | - | 153 W/m² | - |
| 1787776079 | 32.22° C | 70% | 1017.3 hPa | 0 mm | - | 167 W/m² | - |
| 1787775774 | 32.78° C | 70% | 1017.1 hPa | 0 mm | - | 184 W/m² | - |
| 1787775473 | 32.78° C | 69% | 1017.4 hPa | 0 mm | - | 232 W/m² | - |
| 1787775171 | 32.78° C | 69% | 1017.1 hPa | 0 mm | - | 223 W/m² | - |
| 1787774872 | 33.33° C | 68% | 1017.2 hPa | 0 mm | - | 402 W/m² | - |
| 1787774571 | 33.33° C | 67% | 1017.2 hPa | 0 mm | - | 498 W/m² | - |
| 1787774271 | 33.89° C | 67% | 1017.2 hPa | 0 mm | - | 521 W/m² | - |
* Rain latest hour (hover to see other rain measurements)
** Current wind speed in m/s (hover to see current wind gust speed)